This demonstration page uses our WeatherBlox Daily Observations layout. Learn more.

Hourly Observations for September 20, 2019

Temp ( °F °C ) Dew Point ( °F °C ) Humidity (%) Winds ( mph kmh ) Pressure ( in mb ) Visibility ( mi km ) Precip ( " mm )
12:15 am 00:15 Clear 75 23.8 67 19.2 76 76 SSE 9 15 29.83 1010 10 16.09344 0 0
12:35 am 00:35 Clear 75 23.7 67 19.3 76 76 SSE 10 17 29.83 1010 10 16.09344 0 0
12:55 am 00:55 Clear 74 23.3 67 19.3 78 78 SSE 9 15 29.83 1010 10 16.09344 0 0
1:15 am 01:15 Clear 73 23 67 19.5 81 81 SSE 8 13 29.83 1010 10 16.09344 0 0
1:35 am 01:35 Clear 73 23 67 19.5 81 81 SSE 7 11 29.83 1010 10 16.09344 0 0
1:55 am 01:55 Clear 74 23.1 67 19.5 80 80 SSE 10 17 29.83 1010 10 16.09344 0 0
2:15 am 02:15 Clear 74 23.1 67 19.5 80 80 SSE 9 15 29.83 1010 10 16.09344 0 0
2:35 am 02:35 Clear 73 23 67 19.5 81 81 SSE 9 15 29.83 1010 10 16.09344 0 0
2:55 am 02:55 Clear 73 22.8 67 19.5 82 82 SSE 10 17 29.8 1009 10 16.09344 0 0
3:15 am 03:15 Clear 72 22.2 67 19.4 84 84 SSE 10 17 29.85 1011 10 16.09344 0 0
3:35 am 03:35 Clear 72 22.2 67 19.5 85 85 SSE 12 19 29.85 1011 10 16.09344 0 0
3:55 am 03:55 Clear 71 21.5 67 19.3 87 87 SSE 7 11 29.85 1011 10 16.09344 0 0
4:15 am 04:15 Clear 70 21 67 19.3 90 90 SE 8 13 29.85 1011 10 16.09344 0 0
4:35 am 04:35 Clear 69 20.8 67 19.4 92 92 SSE 9 15 29.85 1011 10 16.09344 0 0
4:55 am 04:55 Clear 69 20.7 67 19.5 93 93 SSE 10 17 29.85 1011 10 16.09344 0 0
5:15 am 05:15 Clear 69 20.3 67 19.3 94 94 SSE 8 13 29.85 1011 10 16.09344 0 0
5:35 am 05:35 Clear 68 20.1 67 19.5 96 96 SSE 9 15 29.85 1011 10 16.09344 0 0
5:55 am 05:55 Clear 69 20.3 67 19.5 95 95 SSE 9 15 29.85 1011 10 16.09344 0 0
6:15 am 06:15 Clear 68 20 67 19.5 97 97 SSE 7 11 29.85 1011 10 16.09344 0 0
6:35 am 06:35 Clear 68 20.2 67 19.6 96 96 SSE 9 15 29.85 1011 10 16.09344 0 0
6:55 am 06:55 Clear 69 20.3 67 19.6 96 96 SSE 8 13 29.85 1011 10 16.09344 0 0
7:15 am 07:15 Clear 69 20.3 67 19.6 96 96 SSE 9 15 29.85 1011 10 16.09344 0 0
7:35 am 07:35 Sunny 69 20.3 67 19.6 96 96 SSE 9 15 29.85 1011 10 16.09344 0 0
7:55 am 07:55 Sunny 69 20.6 68 19.8 95 95 SSE 9 15 29.85 1011 10 16.09344 0 0
8:15 am 08:15 Sunny 69 20.8 68 19.8 94 94 SSE 10 17 29.85 1011 10 16.09344 0 0
8:35 am 08:35 Sunny 69 20.8 68 19.8 94 94 SSE 12 19 29.85 1011 10 16.09344 0 0
8:55 am 08:55 Sunny 70 21.3 68 20 92 92 SSE 12 19 29.85 1011 10 16.09344 0 0
9:15 am 09:15 Sunny 71 21.7 68 20 90 90 SSE 13 20 29.85 1011 10 16.09344 0 0
9:35 am 09:35 Sunny 72 22 68 20 88 88 SSE 12 19 29.85 1011 10 16.09344 0 0
9:55 am 09:55 Sunny 73 22.5 68 20 86 86 SSE 13 20 29.83 1010 10 16.09344 0 0
10:15 am 10:15 Sunny 74 23.6 68 20 80 80 SSE 15 24 29.83 1010 10 16.09344 0 0
10:35 am 10:35 Sunny 76 24.3 67 19.7 76 76 SSE 15 24 29.83 1010 10 16.09344 0 0
10:55 am 10:55 Sunny 77 25.1 67 19.4 71 71 SSE 17 28 29.83 1010 10 16.09344 0 0
11:15 am 11:15 Sunny 78 25.6 67 19.6 70 70 SSE 18 30 29.83 1010 10 16.09344 0 0
11:35 am 11:35 Sunny 78 25.4 66 19.1 68 68 SSE 20 31 29.8 1009 10 16.09344 0 0
11:55 am 11:55 Sunny 81 27.3 65 18.5 59 59 SSE 23 37 29.77 1008 10 16.09344 0 0
12:15 pm 12:15 Sunny 82 27.9 65 18.5 57 57 SSE 21 33 29.77 1008 10 16.09344 0 0
12:35 pm 12:35 Sunny 82 27.7 65 18.5 57 57 S 18 30 29.77 1008 10 16.09344 0 0
12:55 pm 12:55 Partly Cloudy 83 28.2 65 18.5 56 56 SSE 21 33 29.77 1008 10 16.09344 0 0
1:15 pm 13:15 Partly Cloudy 83 28.6 66 18.9 56 56 S 20 31 29.77 1008 10 16.09344 0 0
1:35 pm 13:35 Partly Cloudy 83 28.6 66 18.8 55 55 SSE 20 31 29.74 1007 10 16.09344 0 0
1:55 pm 13:55 Partly Cloudy 84 28.7 65 18.4 54 54 SSE 20 31 29.74 1007 10 16.09344 0 0
2:15 pm 14:15 Partly Cloudy 84 29.1 65 18.6 53 53 SSE 18 30 29.74 1007 10 16.09344 0 0
2:35 pm 14:35 Partly Cloudy 85 29.3 65 18.3 52 52 SSE 22 35 29.74 1007 10 16.09344 0 0
2:55 pm 14:55 Partly Cloudy 84 29.1 65 18.4 52 52 SSE 22 35 29.68 1005 10 16.09344 0 0
3:15 pm 15:15 Mostly Cloudy 84 28.8 65 18.1 52 52 SSE 17 28 29.71 1006 10 16.09344 0 0
3:35 pm 15:35 Partly Cloudy 83 28.1 64 17.6 53 53 SSE 17 28 29.68 1005 10 16.09344 0 0
3:55 pm 15:55 Partly Cloudy 84 28.8 64 17.9 52 52 SE 22 35 29.65 1004 10 16.09344 0 0
4:15 pm 16:15 Partly Cloudy 83 28.6 64 17.9 52 52 SSE 17 28 29.68 1005 10 16.09344 0 0
4:35 pm 16:35 Partly Cloudy 84 29.1 65 18.3 52 52 SE 17 28 29.65 1004 10 16.09344 0 0
4:55 pm 16:55 Partly Cloudy 83 28.6 65 18.5 54 54 SE 20 31 29.62 1003 10 16.09344 0 0
5:15 pm 17:15 Partly Cloudy 83 28.4 65 18.3 54 54 SE 20 31 29.62 1003 10 16.09344 0 0
5:35 pm 17:35 Sunny 82 28 65 18.3 56 56 SE 16 26 29.65 1004 10 16.09344 0 0
5:55 pm 17:55 Partly Cloudy 81 27.4 65 18.5 58 58 SE 20 31 29.65 1004 10 16.09344 0 0
6:15 pm 18:15 Sunny 80 26.6 65 18.6 62 62 SSE 17 28 29.65 1004 10 16.09344 0 0
6:35 pm 18:35 Mostly Cloudy 79 26.1 66 18.8 64 64 SE 20 31 29.68 1005 10 16.09344 0 0
6:55 pm 18:55 Mostly Cloudy 78 25.6 66 19 67 67 SE 22 35 29.68 1005 10 16.09344 0 0
7:15 pm 19:15 Cloudy 77 25 66 19.1 70 70 SE 17 28 29.68 1005 10 16.09344 0 0
7:35 pm 19:35 Partly Cloudy 76 24.5 66 19 72 72 SSE 18 30 29.71 1006 10 16.09344 0 0
7:55 pm 19:55 Clear 75 23.8 66 19.1 75 75 SSE 18 30 29.71 1006 10 16.09344 0 0
8:15 pm 20:15 Clear 74 23.2 67 19.4 79 79 SE 18 30 29.71 1006 10 16.09344 0 0
8:35 pm 20:35 Clear 73 22.6 67 19.6 83 83 SE 16 26 29.71 1006 10 16.09344 0 0
8:55 pm 20:55 Clear 72 22.2 68 19.9 87 87 SE 18 30 29.71 1006 10 16.09344 0 0
9:15 pm 21:15 Clear 72 22 68 20 88 88 SSE 17 28 29.71 1006 10 16.09344 0 0
9:35 pm 21:35 Clear 71 21.5 68 20.1 92 92 SSE 22 35 29.71 1006 10 16.09344 0 0
9:55 pm 21:55 Clear 71 21.5 69 20.3 93 93 SSE 15 24 29.71 1006 10 16.09344 0 0
10:15 pm 22:15 Clear 71 21.5 69 20.3 93 93 SSE 20 31 29.71 1006 10 16.09344 0 0
10:35 pm 22:35 Partly Cloudy 71 21.5 69 20.3 93 93 SSE 15 24 29.71 1006 10 16.09344 0 0
10:55 pm 22:55 Partly Cloudy 71 21.5 69 20.5 94 94 SSE 16 26 29.71 1006 10 16.09344 0 0
11:15 pm 23:15 Clear 71 21.5 69 20.4 93 93 SSE 15 24 29.71 1006 10 16.09344 0 0
11:35 pm 23:35 Clear 71 21.5 69 20.3 93 93 SSE 17 28 29.71 1006 10 16.09344 0 0
11:55 pm 23:55 Clear 71 21.5 68 20.2 92 92 SSE 15 24 29.71 1006 10 16.09344 0 0

Powered by AerisWeather